Location: Bocchiglicro
(39.4167°N, 16.7500°E)
Time: 19:03:27
(UTC+00:00)

Cosmos 2333 Rocket - Pass Details

Date: 07 June 2020
Orbit: 839 x 863 km, 70.8° (Epoch: 02 July)

Event Time Altitude Azimuth Distance (km) Brightness Sun altitude
Exits shadow 02:37:37 - 213° (SSW) 2,537 4.1 -8.5°
Reaches altitude 10° 02:37:51 10° 214° (SW) 2,448 4.0 -8.5°
Maximum altitude 02:43:25 64° 295° (WNW) 934 2.3 -7.6°
Drops below altitude 10° 02:49:03 10° 17° (NNE) 2,475 5.6 -6.8°
Sets 02:51:33 0° 21° (NNE) 3,417 6.4 -6.4°
